Cloud_Cover
6 86 5 5 31 5 4 0 0 0 0 0 0 0 0 0 0 0 0 0 0 0 0 5 5 45 2 3 1 19 5 95 28
51 51 5 76 5 5 2 0 3 5 1 0 2 0 0 0 0 0 2 0 3 5 5 7 95 50 5 20 93 56 79 100 62
100 30 28 73 2 0 2 10 5 8 3 6 68 0 0 0 0 53 26 3 63 100 99 90 100 86 100 88 28 23 80 18 15
100 84 88 93 91 4 90 27 0 0 0 0 0 0 0 0 20 12 14 5 100 100 88 100 100 100 42 15 67 38 89 91 77
100 100 100 8 5 14 14 0 0 0 0 0 0 0 0 0 1 1 12 0 3 28 100 97 33 85 90 100 26 77 100 100 100
42 98 96 57 5 5 5 3 0 0 0 0 0 0 4 0 0 0 1 2 4 2 21 73 100 87 84 53 51 100 100 100 100
20 57 20 5 5 0 5 3 0 0 0 0 0 0 0 1 5 5 5 5 5 5 5 46 100 90 100 94 100 100 100 100 100
43 28 16 5 5 3 5 0 0 0 0 0 3 2 2 3 0 5 5 5 10 53 100 60 41 16 100 86 61 100 100 100 100
7 5 5 0 3 5 2 4 5 0 25 100 30 5 5 4 5 5 5 28 57 5 5 5 14 23 80 92 100 100 100 100 100
5 5 5 5 5 6 10 5 6 65 82 29 5 5 5 1 5 5 4 5 0 0 4 5 5 5 25 16 66 68 82 100 100
14 47 39 14 47 100 97 25 5 0 0 0 0 0 5 5 5 5 0 0 0 0 0 0 0 0 0 1 0 1 5 5 24
100 96 84 100 100 74 75 5 4 0 0 0 0 0 0 0 0 4 0 0 0 0 0 0 0 0 0 0 0 0 0 0 0
100 100 80 98 77 46 43 5 0 2 0 0 0 0 0 0 0 0 0 0 0 0 0 0 0 0 0 0 0 0 0 0 0
100 100 100 75 42 46 63 5 3 2 0 0 0 0 0 0 0 0 0 0 0 0 0 0 0 0 0 0 0 0 0 0 0
100 100 100 99 58 40 27 5 5 0 0 0 0 0 0 0 0 0 0 0 0 0 0 0 0 0 1 1 2 2 4 0 1
100 100 100 37 100 82 7 5 5 0 0 0 0 0 0 0 0 0 0 0 0 0 0 0 0 0 0 0 0 0 0 0 3
100 100 100 100 90 5 5 5 1 0 0 0 0 0 0 0 0 0 0 0 0 0 0 0 0 0 0 0 0 0 0 0 3
100 100 100 87 50 36 23 5 0 0 0 0 0 0 0 3 0 0 0 0 0 0 0 0 0 0 0 0 0 0 0 0 3
100 99 63 21 33 45 5 0 0 0 0 0 0 0 0 0 0 0 4 0 0 0 2 2 4 2 0 0 0 0 0 1 5
78 58 57 50 50 8 1 0 0 0 0 0 0 0 0 0 0 0 0 0 5 5 5 5 5 5 5 5 4 0 5 5 5